[[{"header":{"parameterUnit":"m.s-1","parameterCategory":1,"la1":30.2991,"la2":30.254,"lo1":-89.0895,"lo2":-89.0444,"dy":0.0017,"dx":0.0017,"nx":28,"ny":28,"refTime":"2024-12-31T03:00:00:Z","depth":0,"parameterNumber":2,"parameterNumberName":"U-component_of_WINDS"},"data":[0,0,0,0,0,0,0,0,0,0,0,0,0,0,0,0,0,0,0,0,0,0,0,0,0,0,0,0,0,0,0,0,0,0,0,0,0,0,0,0,0,0,0,0,0,0,0,0,0,0,0,0,0,0,0,0,0,0,2.8628,2.8628,0,2.8687,2.8688,2.8689,2.8639,2.8636,2.8634,2.8632,2.8696,2.87,2.8703,0,0,0,0,0,0,0,0,0,0,0,0,0,2.8474,2.8477,2.8627,2.8628,2.8629,2.8687,2.8688,2.8689,2.8639,2.8636,2.8634,2.8631,2.8695,2.8699,2.8704,0,0,0,0,0,0,0,0,0,0,0,0,0,2.8538,2.8478,2.8627,2.8611,2.861,2.8687,2.8688,2.8689,2.8639,2.8636,2.8633,2.863,2.8694,2.8699,2.8704,2.8801,0,0,2.8721,2.8723,0,0,0,0,0,0,0,0,2.8535,2.8544,2.8613,2.8612,2.8611,2.8652,2.8657,2.8727,2.864,2.8628,2.8632,2.8629,2.8684,2.869,2.8709,2.8804,2.8807,2.8722,2.8725,2.8727,2.8729,0,0,0,0,0,0,0,2.853,2.8541,2.8651,2.8614,2.8613,2.8602,2.8608,2.867,2.8673,2.8629,2.8626,2.8633,2.8683,2.8703,2.871,2.8808,2.8721,2.8726,2.873,2.8732,2.899,2.8993,0,0,0,0,0,0,2.8527,2.8538,2.8649,2.8653,2.8564,2.8607,2.8614,2.8642,2.8673,2.8674,2.8636,2.8631,2.8696,2.8703,2.8712,2.883,2.8727,2.8732,2.8736,2.8986,2.8991,2.8995,0,0,0,0,0,0,2.8524,2.8537,2.8647,2.8594,2.8608,2.8613,2.8646,2.8645,2.8665,2.8678,2.8678,2.8656,2.8693,2.8704,2.878,2.8831,2.8735,2.874,2.8982,2.8988,2.8993,2.9065,0,0,0,0,0,0,2.852,2.8537,2.8572,2.8596,2.8611,2.8713,2.8649,2.8649,2.8674,2.8668,2.8696,2.8698,2.8692,2.8772,2.8786,2.8837,2.8744,2.8978,2.8985,2.8991,2.9058,2.9072,2.9084,0,0,0,0,0,2.8514,2.859,2.8574,2.8588,2.8655,2.8716,2.8725,2.8715,2.8679,2.8716,2.8724,2.8697,2.8823,2.878,2.8795,2.8849,2.8974,2.8983,2.899,2.9052,2.9069,2.9084,0,0,0,0,0,0,2.8573,2.8593,2.8576,2.8661,2.8687,2.8707,2.8753,2.8733,2.8771,2.8764,2.8751,2.8758,2.8839,2.8851,2.8803,2.8946,2.8893,2.8905,2.8935,2.8952,2.8964,2.896,2.8749,0,0,0,0,0,2.8596,2.8642,2.8657,2.8731,2.8745,2.8748,2.8773,2.8764,2.8791,2.8802,2.8816,2.8845,2.8891,2.8922,2.8965,2.9059,2.9066,2.9104,2.9117,2.9128,2.9138,2.9192,2.921,2.9021,2.9021,2.9021,0,0,2.8643,2.866,2.869,2.8744,2.8763,2.8813,2.8757,2.8812,2.885,2.8811,2.8884,2.8896,2.8927,2.9013,2.9052,2.9026,2.9192,2.9138,2.9146,2.9151,2.9203,2.9221,2.9236,2.9026,2.9025,2.9025,0,0,2.8756,2.8772,2.8837,2.8858,2.8888,2.8889,2.8905,2.8929,2.8935,2.9008,2.8981,2.9026,2.9105,2.913,2.9152,2.9277,2.9255,2.9292,2.9361,2.9414,2.9429,2.9442,2.9489,2.9506,2.9302,2.9302,2.9302,0,2.8812,2.8885,2.8873,2.8931,2.8956,2.8923,2.899,2.9011,2.9054,2.9074,2.9043,2.9144,2.9162,2.9256,2.9287,2.9305,2.9325,2.9289,2.9427,2.944,2.9453,2.9498,2.9515,2.9306,2.9306,2.9305,2.9305,0,2.8954,2.9005,2.9054,2.9097,2.9128,2.919,2.9189,2.9222,2.9211,2.9216,2.9293,2.9314,2.9362,2.9383,2.9372,2.9476,2.9459,2.9428,2.9375,2.9475,2.9518,2.9534,2.9313,2.9311,2.931,2.9309,0,0,2.9104,2.9141,2.9159,2.9179,2.9211,2.9252,2.9314,2.936,2.9391,2.9422,2.9475,2.9544,2.9517,2.9543,2.9534,2.9581,2.9682,2.9545,2.9545,2.9572,2.9802,2.9826,2.9846,2.9667,2.967,2.9673,2.98,0,2.922,2.9327,2.9319,2.942,2.947,2.944,2.9495,2.9521,2.9528,2.9573,2.958,2.9631,2.9589,2.9605,2.965,2.966,2.9729,2.9651,2.9719,2.9722,2.9714,2.9868,2.9893,3.0012,2.9816,2.9819,2.9821,0,2.9369,2.9407,2.9513,2.9541,2.9561,2.961,2.9654,2.9695,2.9726,2.9728,2.9759,2.9743,2.9808,2.9753,2.9844,2.9791,2.9819,2.9829,2.9833,2.984,2.9778,2.9882,3.0049,3.0068,2.9846,2.9844,2.9842,0,2.9472,2.9549,2.9623,2.9641,2.9674,2.9709,2.9725,2.9752,2.9782,2.9821,2.9841,2.9886,2.9912,2.9949,2.9948,2.9907,3.0041,2.9985,3.0047,3.0047,3.0077,3.0076,3.0254,3.0092,3.0092,3.0091,3.0091,0,2.9604,2.9671,2.967,2.9716,2.9791,2.9782,2.9857,2.9869,2.9894,2.9944,2.9921,2.9968,2.9962,3.0011,3.001,3.0087,3.0098,3.0103,3.0103,3.0107,3.0106,3.0126,3.0118,3.0096,3.0095,3.0094,3.0093,0,2.9731,2.9733,2.9812,2.9838,2.9846,2.99,2.9923,2.9967,2.9973,3.0036,3.005,3.006,3.0116,3.0118,3.0181,3.0181,3.0276,3.0265,3.0266,3.0265,3.0327,3.0322,3.0526,3.0553,3.0371,3.0373,3.0374,0,2.9815,2.9867,2.9898,2.9929,2.9947,2.9997,3.0028,3.0022,3.0055,3.0095,3.0136,3.0189,3.0232,3.0323,3.0337,3.0386,3.0378,3.0446,3.0385,3.0389,3.0382,3.038,3.0386,3.0458,3.046,3.0462,3.0463,0,2.9966,2.9966,3.001,3.0056,3.0093,3.0129,3.0162,3.0189,3.0187,3.0226,3.0283,3.0316,3.0382,3.0437,3.0486,3.0503,3.0485,3.0482,3.05,3.0505,3.0504,3.0508,3.03,3.0478,3.0476,3.0475,3.0474,3.0474,3.0077,3.0122,3.0152,3.0203,3.0227,3.026,3.0304,3.0315,3.0362,3.0415,3.0409,3.0473,3.0506,3.0569,3.0591,3.0643,3.0619,3.0644,3.0651,3.0657,3.0666,3.0495,3.0651,3.0651,3.065,3.065,3.065,0,3.0229,3.0247,3.0294,3.0342,3.0383,3.036,3.0397,3.0433,3.0489,3.0521,3.0563,3.0631,3.0684,3.0703,3.0755,3.0793,3.0786,3.0807,3.0805,3.0811,3.0682,3.0663,3.0812,3.0812,3.0812,3.0812,3.0812,3.0812,3.0312,3.0389,3.0392,3.0481,3.0499,3.0561,3.0584,3.0615,3.064,3.0716,3.076,3.0772,3.0799,3.0854,3.0903,3.0907,3.0929,3.0955,3.0956,3.0835,3.0819,3.0804,3.0786,3.0959,3.0959,3.108,3.1081,3.1082]},{"header":{"parameterUnit":"m.s-1","parameterCategory":1,"la1":30.2991,"la2":30.254,"lo1":-89.0895,"lo2":-89.0444,"dy":0.0017,"dx":0.0017,"nx":28,"ny":28,"refTime":"2024-12-31T03:00:00:Z","depth":0,"parameterNumber":3,"parameterNumberName":"V-component_of_WINDS"},"data":[0,0,0,0,0,0,0,0,0,0,0,0,0,0,0,0,0,0,0,0,0,0,0,0,0,0,0,0,0,0,0,0,0,0,0,0,0,0,0,0,0,0,0,0,0,0,0,0,0,0,0,0,0,0,0,0,0,0,-2.0097,-2.0096,0,-2.0007,-2.0006,-2.0005,-2.0045,-2.0047,-2.005,-2.0052,-1.9952,-1.9948,-1.9943,0,0,0,0,0,0,0,0,0,0,0,0,0,-2.0299,-2.0295,-2.0097,-2.0096,-2.0095,-2.0007,-2.0006,-2.0004,-2.0045,-2.0047,-2.005,-2.0053,-1.9954,-1.9948,-1.9943,0,0,0,0,0,0,0,0,0,0,0,0,0,-2.021,-2.0294,-2.0097,-2.0105,-2.0104,-2.0007,-2.0006,-2.0004,-2.0044,-2.0047,-2.0051,-2.0054,-1.9956,-1.9949,-1.9942,-1.983,0,0,-1.992,-1.9917,0,0,0,0,0,0,0,0,-2.0215,-2.0203,-2.0105,-2.0104,-2.0104,-2.0041,-2.0041,-1.9946,-2.0043,-2.0067,-2.0052,-2.0056,-1.9979,-1.997,-1.9945,-1.9826,-1.9821,-1.992,-1.9915,-1.9912,-1.991,0,0,0,0,0,0,0,-2.0221,-2.0207,-2.0061,-2.0103,-2.0102,-2.011,-2.0102,-2.0023,-2.0005,-2.0065,-2.0068,-2.0057,-1.9979,-1.9952,-1.9943,-1.982,-1.992,-1.9913,-1.9909,-1.9906,-1.9604,-1.96,0,0,0,0,0,0,-2.0228,-2.0212,-2.0064,-2.0059,-2.0169,-2.0104,-2.0094,-2.0057,-2.0006,-2.0001,-2.0054,-2.0059,-1.9963,-1.9952,-1.994,-1.9806,-1.9912,-1.9906,-1.9902,-1.9607,-1.9603,-1.9599,0,0,0,0,0,0,-2.0232,-2.0215,-2.0068,-2.0136,-2.0118,-2.0097,-2.0055,-2.0054,-2.0027,-1.9998,-1.9994,-2.003,-1.9965,-1.995,-1.9858,-1.9803,-1.9902,-1.9896,-1.9612,-1.9606,-1.9601,-1.9536,0,0,0,0,0,0,-2.0238,-2.0216,-2.0175,-2.0135,-2.0114,-1.9989,-2.0052,-2.005,-2.0015,-2.0021,-1.9974,-1.997,-1.9966,-1.9868,-1.9851,-1.9795,-1.989,-1.9617,-1.9609,-1.9603,-1.9543,-1.9529,-1.9517,0,0,0,0,0,-2.0245,-2.0158,-2.0172,-2.0154,-2.0062,-1.9985,-1.9973,-1.9973,-2.0011,-1.9968,-1.9949,-1.9971,-1.9812,-1.9858,-1.9839,-1.978,-1.962,-1.9611,-1.9603,-1.9549,-1.9532,-1.9517,0,0,0,0,0,0,-2.019,-2.0153,-2.0168,-2.0067,-2.0029,-1.9992,-1.9939,-1.9955,-1.9904,-1.9911,-1.9912,-1.99,-1.9805,-1.9783,-1.9836,-1.9669,-1.9721,-1.9709,-1.9687,-1.967,-1.9657,-1.9664,-1.9884,0,0,0,0,0,-2.0167,-2.0109,-2.0079,-1.9992,-1.9973,-1.9959,-1.9926,-1.9929,-1.9889,-1.9873,-1.9847,-1.9806,-1.9747,-1.9707,-1.9651,-1.954,-1.953,-1.949,-1.9477,-1.9467,-1.9455,-1.9394,-1.9376,-1.9571,-1.9571,-1.9571,0,0,-2.0116,-2.0089,-2.0053,-1.9981,-1.9952,-1.9891,-1.9945,-1.9878,-1.9832,-1.9862,-1.9774,-1.9753,-1.9707,-1.9605,-1.9559,-1.9584,-1.9399,-1.9456,-1.9448,-1.9442,-1.9384,-1.9365,-1.9349,-1.9565,-1.9566,-1.9567,0,0,-1.9994,-1.9968,-1.9893,-1.9864,-1.982,-1.9812,-1.9794,-1.9754,-1.9743,-1.9655,-1.9676,-1.962,-1.9518,-1.9485,-1.9454,-1.932,-1.9337,-1.9301,-1.9232,-1.9173,-1.9158,-1.9144,-1.9095,-1.9078,-1.929,-1.929,-1.929,0,-1.9936,-1.9847,-1.9851,-1.9783,-1.975,-1.9777,-1.97,-1.967,-1.961,-1.9586,-1.9616,-1.9489,-1.9459,-1.935,-1.9317,-1.9292,-1.927,-1.9306,-1.916,-1.9146,-1.9133,-1.9087,-1.9068,-1.9286,-1.9286,-1.9287,-1.9287,0,-1.9778,-1.9715,-1.9659,-1.9603,-1.9564,-1.9491,-1.9483,-1.9443,-1.945,-1.9437,-1.9347,-1.9313,-1.9251,-1.9225,-1.923,-1.9116,-1.9133,-1.9161,-1.9213,-1.9111,-1.9067,-1.9049,-1.928,-1.9281,-1.9283,-1.9284,0,0,-1.9616,-1.9565,-1.9544,-1.9519,-1.9473,-1.9424,-1.9352,-1.9293,-1.9258,-1.9216,-1.9154,-1.9068,-1.9094,-1.906,-1.9061,-1.9009,-1.8904,-1.9044,-1.9043,-1.9018,-1.8775,-1.8753,-1.8733,-1.8916,-1.8913,-1.891,-1.8779,0,-1.949,-1.9366,-1.9369,-1.9253,-1.9194,-1.9219,-1.9157,-1.9121,-1.9108,-1.9055,-1.9039,-1.8978,-1.9018,-1.8997,-1.8947,-1.8928,-1.8855,-1.8937,-1.8857,-1.8854,-1.8867,-1.871,-1.8686,-1.8564,-1.8762,-1.8759,-1.8757,0,-1.9325,-1.928,-1.9159,-1.9123,-1.9098,-1.9042,-1.8988,-1.8938,-1.8897,-1.8891,-1.8853,-1.8863,-1.8788,-1.8844,-1.874,-1.8796,-1.8764,-1.8749,-1.8744,-1.8736,-1.8798,-1.8696,-1.8524,-1.8506,-1.873,-1.8732,-1.8734,0,-1.9219,-1.9127,-1.9043,-1.902,-1.8976,-1.8936,-1.8915,-1.8878,-1.8843,-1.8795,-1.8772,-1.8715,-1.8684,-1.8639,-1.8633,-1.8675,-1.8528,-1.8584,-1.8519,-1.8519,-1.8486,-1.8488,-1.8306,-1.8467,-1.8467,-1.8468,-1.8468,0,-1.9076,-1.9001,-1.8995,-1.8942,-1.8858,-1.8862,-1.8778,-1.876,-1.8728,-1.8671,-1.8689,-1.8635,-1.8632,-1.8576,-1.857,-1.8485,-1.847,-1.8462,-1.8461,-1.846,-1.8461,-1.8437,-1.8445,-1.8463,-1.8464,-1.8465,-1.8466,0,-1.8942,-1.8935,-1.8845,-1.8811,-1.8801,-1.874,-1.871,-1.866,-1.8649,-1.8578,-1.8561,-1.8543,-1.8479,-1.8469,-1.8393,-1.8389,-1.8286,-1.8294,-1.83,-1.8301,-1.8237,-1.8243,-1.8032,-1.8005,-1.8185,-1.8183,-1.8182,0,-1.8851,-1.8794,-1.8755,-1.872,-1.8698,-1.864,-1.8605,-1.8605,-1.8567,-1.8518,-1.8473,-1.8411,-1.8361,-1.8257,-1.8236,-1.8177,-1.8184,-1.8114,-1.8175,-1.8175,-1.8181,-1.8185,-1.8178,-1.8102,-1.81,-1.8098,-1.8097,0,-1.869,-1.869,-1.8639,-1.8587,-1.8545,-1.8503,-1.8464,-1.8433,-1.8429,-1.8385,-1.8321,-1.8282,-1.8206,-1.8143,-1.8086,-1.8062,-1.8078,-1.8079,-1.8061,-1.8058,-1.8063,-1.8058,-1.8267,-1.8083,-1.8084,-1.8085,-1.8086,-1.8087,-1.8574,-1.8525,-1.849,-1.8432,-1.8403,-1.8367,-1.8318,-1.8302,-1.8249,-1.8188,-1.8191,-1.812,-1.8081,-1.8006,-1.7979,-1.7922,-1.7944,-1.7918,-1.7911,-1.7904,-1.7898,-1.8073,-1.7911,-1.7912,-1.7912,-1.7912,-1.7913,0,-1.8413,-1.8392,-1.834,-1.8286,-1.824,-1.8262,-1.822,-1.818,-1.8118,-1.8081,-1.8033,-1.7958,-1.7898,-1.7873,-1.7814,-1.7773,-1.7779,-1.7757,-1.7759,-1.7754,-1.7882,-1.7903,-1.7754,-1.7754,-1.7754,-1.7754,-1.7754,-1.7754,-1.8324,-1.8241,-1.8237,-1.814,-1.8119,-1.8051,-1.8025,-1.7991,-1.7962,-1.7879,-1.783,-1.7815,-1.7782,-1.7721,-1.7666,-1.766,-1.7637,-1.7612,-1.7609,-1.7729,-1.7745,-1.776,-1.778,-1.7607,-1.7607,-1.7485,-1.7484,-1.7483]}]]